VVTSVVCR

Guest
Details From VVTS - TAN SON NHAT INTL
To VVCR - CAM RANH
Flight Number -
Tags generated
Created
Modified
Stats Distance 170 nm / 315 km
Max Altitude 11,700 ft / 3,566 m
Waypoints 4
Social Downloads 1
Likes 0
Share VATSIM

Download

Looking for another format? Having issues loading an existing format? Contact us
Advertisement - Login to hide

Notes

Basic altitude profile: - Ascent Rate: 2500ft/min - Ascent Speed: 250kts - Cruise Altitude: 28ft - Cruise Speed: 420kts - Descent Rate: 1500ft/min - Descent Speed: 250kts Options: - Use NATs: yes - Use PACOTS: yes - Use low airways: yes - Use high airways: yes

Route

VVTS AC W15 DL VVCR

ID Type Via Altitude Latitude Longitude Leg Dist Tot Dist Heading (true) Name
O VVTS APT - 0 ft / 0 m 10.81875˚ 106.65173˚ - 0 nm - TAN SON NHAT INTL
AC NDB - 11,500 ft / 3,505 m 10.93917˚ 107.18833˚ 32 nm 32 nm 77° / 77° ANLOC NDB
DL NDB W15 (AWY-LO) 11,700 ft / 3,566 m 11.75000˚ 108.32500˚ 82 nm 115 nm 54° / 54° DALAT NDB
O VVCR APT - 0 ft / 0 m 11.99813˚ 109.21934˚ 54 nm 169 nm 74° / 74° CAM RANH

Altitude Profile

Advertisement - Login to hide

Weather


0- 5 10 15 20 25 30 35+ Temperature / ° C

Clouds and Precipitation
Forecast for 2017-12-19 00:00 UTC. Updated an hour ago

Ground ~20,000 ft ~40,000 ft Winds

VVTS

Details ICAO VVTS (SGN)
Name TAN SON NHAT INTL
Region Vietnam
Timezone Asia/Ho_Chi_Minh (UTC+7.0)
Stats Elevation 33 ft / 10 m (AMSL)
Location 10.818750° 106.651735°
Runways 2
Magnetic Variation 0.488° W

METAR

VVTS 182000Z 36007KT 9999 SCT017 21/16 Q1012 NOSIG

Decode

TAF

TAF VVTS 181700Z 1818/1924 02010KT 9999 FEW017

Decode

Departure Runways

ID Width Length Bearing (true) Bearing (mag) Surface Threshold Offset Overrun Length
07L 148 ft / 45 m 9,998 ft / 3,047 m 69.00° 69.49° Asphalt 0 ft / 0 m 1,040 ft / 317 m
07R 148 ft / 45 m 12,617 ft / 3,846 m 68.90° 69.39° Concrete 2,543 ft / 775 m 863 ft / 263 m
25L 148 ft / 45 m 12,617 ft / 3,846 m 248.90° 249.39° Concrete 0 ft / 0 m 1,027 ft / 313 m
25R 148 ft / 45 m 9,998 ft / 3,047 m 249.00° 249.49° Asphalt 0 ft / 0 m 1,053 ft / 321 m

VVCR

Details ICAO VVCR (CXR)
Name CAM RANH
Region Vietnam
Timezone Asia/Ho_Chi_Minh (UTC+7.0)
Stats Elevation 40 ft / 12 m (AMSL)
Location 11.998129° 109.219343°
Runways 1
Magnetic Variation 0.768° W

METAR

VVCR 182000Z 01016KT 9999 FEW015 SCT050 23/13 Q1016 NOSIG

Decode

TAF

TAF VVCR 181700Z 1818/1918 02015KT 9999 SCT015 TEMPO 1901/1909 04025KT

Decode

Destination Runways

ID Width Length Bearing (true) Bearing (mag) Surface Threshold Offset Overrun Length
02 150 ft / 46 m 10,049 ft / 3,063 m 18.73° 19.50° Concrete 0 ft / 0 m 1,000 ft / 305 m
20 150 ft / 46 m 10,049 ft / 3,063 m 198.73° 199.50° Concrete 0 ft / 0 m 1,000 ft / 305 m

Popular Alternatives